TimeEST,TemperatureF,Dew PointF,Humidity,Sea Level PressureIn,VisibilityMPH,Wind Direction,Wind SpeedMPH,Gust SpeedMPH,PrecipitationIn,Events,Conditions,WindDirDegrees,DateUTC
12:52 AM,1.9,-2.9,80,30.28,10.0,Calm,Calm,-,N/A,,Clear,0,2013-01-27 05:52:00
1:52 AM,1.0,-2.9,83,30.29,10.0,Calm,Calm,-,N/A,,Clear,0,2013-01-27 06:52:00
2:52 AM,-0.0,-4.0,83,30.32,8.0,Calm,Calm,-,N/A,,Clear,0,2013-01-27 07:52:00
3:52 AM,1.0,-4.0,79,30.32,10.0,Calm,Calm,-,N/A,,Clear,0,2013-01-27 08:52:00
4:52 AM,1.0,-2.9,83,30.33,10.0,Calm,Calm,-,N/A,,Clear,0,2013-01-27 09:52:00
5:52 AM,-0.9,-5.1,83,30.36,10.0,SSW,3.5,-,N/A,,Clear,210,2013-01-27 10:52:00
6:52 AM,-2.9,-7.1,82,30.38,10.0,Calm,Calm,-,N/A,,Clear,0,2013-01-27 11:52:00
7:52 AM,1.9,-2.0,83,30.40,10.0,NW,5.8,-,N/A,,Clear,320,2013-01-27 12:52:00
8:52 AM,12.9,1.9,62,30.42,10.0,NW,8.1,-,N/A,,Clear,320,2013-01-27 13:52:00
9:52 AM,18.0,1.0,48,30.43,10.0,NNW,5.8,-,N/A,,Clear,340,2013-01-27 14:52:00
10:52 AM,19.9,-2.0,38,30.45,10.0,NW,9.2,-,N/A,,Clear,310,2013-01-27 15:52:00
11:52 AM,21.9,-2.0,35,30.44,10.0,NW,15.0,20.7,N/A,,Clear,310,2013-01-27 16:52:00
12:52 PM,25.0,-0.0,34,30.43,10.0,WNW,6.9,-,N/A,,Clear,300,2013-01-27 17:52:00
1:52 PM,27.0,1.9,34,30.42,10.0,WNW,8.1,-,N/A,,Clear,300,2013-01-27 18:52:00
2:52 PM,28.0,-0.0,30,30.41,10.0,NW,6.9,-,N/A,,Clear,320,2013-01-27 19:52:00
3:52 PM,27.0,-2.0,29,30.43,10.0,NW,6.9,-,N/A,,Clear,320,2013-01-27 20:52:00
4:52 PM,24.1,-2.0,32,30.44,10.0,NW,6.9,-,N/A,,Clear,310,2013-01-27 21:52:00
5:52 PM,21.9,-0.9,37,30.47,10.0,WNW,5.8,-,N/A,,Clear,290,2013-01-27 22:52:00
6:52 PM,19.9,-2.0,38,30.48,10.0,WNW,3.5,-,N/A,,Clear,290,2013-01-27 23:52:00
7:52 PM,18.0,-0.0,45,30.48,10.0,Calm,Calm,-,N/A,,Clear,0,2013-01-28 00:52:00
8:52 PM,12.9,-0.0,56,30.46,10.0,Calm,Calm,-,N/A,,Clear,0,2013-01-28 01:52:00
9:52 PM,10.0,1.0,67,30.47,10.0,Calm,Calm,-,N/A,,Clear,0,2013-01-28 02:52:00
10:52 PM,9.0,1.0,70,30.49,10.0,Calm,Calm,-,N/A,,Clear,0,2013-01-28 03:52:00
11:52 PM,6.1,1.0,80,30.48,10.0,Calm,Calm,-,N/A,,Partly Cloudy,0,2013-01-28 04:52:00